TimeCST,TemperatureF,Dew PointF,Humidity,Sea Level PressureIn,VisibilityMPH,Wind Direction,Wind SpeedMPH,Gust SpeedMPH,PrecipitationIn,Events,Conditions,WindDirDegrees,DateUTC
12:12 AM,1.4,-13.0,51,30.40,10.0,Calm,Calm,-,N/A,,Scattered Clouds,0,2013-02-21 06:12:00
12:32 AM,-0.4,-13.0,55,30.41,10.0,Calm,Calm,-,N/A,,Scattered Clouds,0,2013-02-21 06:32:00
12:52 AM,-4.0,-14.8,60,30.41,10.0,Calm,Calm,-,N/A,,Scattered Clouds,0,2013-02-21 06:52:00
1:12 AM,-4.0,-13.0,65,30.41,10.0,Calm,Calm,-,N/A,,Scattered Clouds,0,2013-02-21 07:12:00
1:32 AM,-2.2,-11.2,66,30.41,10.0,Calm,Calm,-,N/A,,Scattered Clouds,0,2013-02-21 07:32:00
1:52 AM,-4.0,-14.8,60,30.41,10.0,Calm,Calm,-,N/A,,Scattered Clouds,0,2013-02-21 07:52:00
2:12 AM,-2.2,-9.4,71,30.40,10.0,Calm,Calm,-,N/A,,Clear,0,2013-02-21 08:12:00
2:32 AM,-7.6,-16.6,65,30.40,10.0,Calm,Calm,-,N/A,,Scattered Clouds,0,2013-02-21 08:32:00
2:52 AM,-7.6,-16.6,65,30.40,10.0,Calm,Calm,-,N/A,,Clear,0,2013-02-21 08:52:00
3:12 AM,-7.6,-16.6,65,30.40,10.0,Calm,Calm,-,N/A,,Clear,0,2013-02-21 09:12:00
3:32 AM,-7.6,-16.6,65,30.41,10.0,Calm,Calm,-,N/A,,Clear,0,2013-02-21 09:32:00
3:52 AM,-7.6,-16.6,65,30.42,10.0,Calm,Calm,-,N/A,,Clear,0,2013-02-21 09:52:00
4:12 AM,-9.4,-18.4,65,30.43,10.0,Calm,Calm,-,N/A,,Clear,0,2013-02-21 10:12:00
4:32 AM,-9.4,-18.4,65,30.43,10.0,Calm,Calm,-,N/A,,Clear,0,2013-02-21 10:32:00
4:52 AM,-11.2,-20.2,64,30.43,10.0,Calm,Calm,-,N/A,,Clear,0,2013-02-21 10:52:00
5:12 AM,-11.2,-20.2,64,30.43,10.0,Calm,Calm,-,N/A,,Clear,0,2013-02-21 11:12:00
5:32 AM,-13.0,-22.0,64,30.43,10.0,Calm,Calm,-,N/A,,Clear,0,2013-02-21 11:32:00
5:52 AM,-13.0,-22.0,64,30.42,10.0,Calm,Calm,-,N/A,,Clear,0,2013-02-21 11:52:00
6:12 AM,-13.0,-22.0,64,30.41,10.0,Calm,Calm,-,N/A,,Clear,0,2013-02-21 12:12:00
6:32 AM,-9.4,-18.4,65,30.40,10.0,Calm,Calm,-,N/A,,Clear,0,2013-02-21 12:32:00
6:52 AM,-9.4,-18.4,65,30.36,10.0,Calm,Calm,-,N/A,,Clear,0,2013-02-21 12:52:00
7:12 AM,-7.6,-16.6,65,30.34,10.0,Calm,Calm,-,N/A,,Clear,0,2013-02-21 13:12:00
7:32 AM,-7.6,-16.6,65,30.34,10.0,Calm,Calm,-,N/A,,Clear,0,2013-02-21 13:32:00
7:52 AM,-4.0,-13.0,65,30.36,10.0,Calm,Calm,-,N/A,,Clear,0,2013-02-21 13:52:00
8:12 AM,-4.0,-13.0,65,30.44,10.0,Calm,Calm,-,N/A,,Clear,0,2013-02-21 14:12:00
8:32 AM,-0.4,-9.4,66,30.46,10.0,Calm,Calm,-,N/A,,Mostly Cloudy,0,2013-02-21 14:32:00
8:52 AM,1.4,-7.6,66,30.46,7.0,Calm,Calm,-,N/A,Snow,Light Snow,0,2013-02-21 14:52:00
9:12 AM,3.2,-7.6,61,30.43,7.0,Calm,Calm,-,N/A,Snow,Light Snow,0,2013-02-21 15:12:00
9:32 AM,5.0,-5.8,61,30.42,7.0,Calm,Calm,-,N/A,Snow,Light Snow,0,2013-02-21 15:32:00
9:52 AM,8.6,-4.0,57,30.41,5.0,Calm,Calm,-,N/A,Snow,Light Snow,0,2013-02-21 15:52:00
10:12 AM,12.2,-0.4,57,30.41,10.0,Calm,Calm,-,N/A,Snow,Light Snow,0,2013-02-21 16:12:00
10:32 AM,17.6,3.2,53,30.39,7.0,Calm,Calm,-,N/A,Snow,Light Snow,0,2013-02-21 16:32:00
10:52 AM,17.6,3.2,53,30.38,10.0,Calm,Calm,-,N/A,,Overcast,0,2013-02-21 16:52:00
11:12 AM,19.4,5.0,54,30.38,10.0,Calm,Calm,-,N/A,,Scattered Clouds,0,2013-02-21 17:12:00
11:32 AM,21.2,5.0,50,30.39,10.0,Calm,Calm,-,N/A,,Clear,0,2013-02-21 17:32:00
11:52 AM,21.2,5.0,50,30.38,10.0,Calm,Calm,-,N/A,,Clear,0,2013-02-21 17:52:00
12:12 PM,21.2,3.2,46,30.37,10.0,Calm,Calm,-,N/A,,Clear,0,2013-02-21 18:12:00
12:32 PM,23.0,3.2,43,30.35,10.0,Calm,Calm,-,N/A,,Clear,0,2013-02-21 18:32:00
12:52 PM,23.0,3.2,43,30.35,10.0,Calm,Calm,-,N/A,,Clear,0,2013-02-21 18:52:00
1:12 PM,23.0,5.0,46,30.34,10.0,Calm,Calm,-,N/A,,Clear,0,2013-02-21 19:12:00
1:32 PM,23.0,5.0,46,30.33,10.0,Calm,Calm,-,N/A,,Clear,0,2013-02-21 19:32:00
1:52 PM,23.0,5.0,46,30.31,10.0,Calm,Calm,-,N/A,,Clear,0,2013-02-21 19:52:00
2:12 PM,24.8,5.0,43,30.30,10.0,Calm,Calm,-,N/A,,Clear,0,2013-02-21 20:12:00
2:32 PM,24.8,5.0,43,30.29,10.0,Calm,Calm,-,N/A,,Clear,0,2013-02-21 20:32:00
2:52 PM,24.8,5.0,43,30.29,10.0,ENE,4.6,-,N/A,,Clear,60,2013-02-21 20:52:00
3:12 PM,23.0,6.8,50,30.28,10.0,NE,6.9,-,N/A,,Clear,50,2013-02-21 21:12:00
3:32 PM,23.0,6.8,50,30.28,10.0,NE,6.9,16.1,N/A,,Clear,40,2013-02-21 21:32:00
3:52 PM,23.0,8.6,54,30.29,10.0,NE,10.4,16.1,N/A,,Scattered Clouds,50,2013-02-21 21:52:00
4:32 PM,21.2,8.6,58,30.28,10.0,Calm,Calm,-,N/A,,Scattered Clouds,0,2013-02-21 22:32:00
4:52 PM,21.2,10.4,63,30.28,10.0,ENE,3.5,-,N/A,,Mostly Cloudy,60,2013-02-21 22:52:00
5:12 PM,21.2,10.4,63,30.27,10.0,Calm,Calm,-,N/A,,Overcast,0,2013-02-21 23:12:00
5:32 PM,21.2,10.4,63,30.28,10.0,Calm,Calm,-,N/A,,Overcast,0,2013-02-21 23:32:00
5:52 PM,21.2,10.4,63,30.26,10.0,Calm,Calm,-,N/A,,Overcast,0,2013-02-21 23:52:00
6:12 PM,21.2,10.4,63,30.25,10.0,Calm,Calm,-,N/A,,Overcast,0,2013-02-22 00:12:00
6:32 PM,21.2,12.2,68,30.24,10.0,Calm,Calm,-,N/A,,Overcast,0,2013-02-22 00:32:00
6:52 PM,21.2,12.2,68,30.25,10.0,Calm,Calm,-,N/A,,Overcast,0,2013-02-22 00:52:00
7:12 PM,21.2,12.2,68,30.24,10.0,Calm,Calm,-,N/A,,Overcast,0,2013-02-22 01:12:00
7:32 PM,21.2,12.2,68,30.22,10.0,Calm,Calm,-,N/A,,Overcast,0,2013-02-22 01:32:00
7:52 PM,21.2,12.2,68,30.21,10.0,Calm,Calm,-,N/A,,Overcast,0,2013-02-22 01:52:00
8:12 PM,21.2,12.2,68,30.20,10.0,Calm,Calm,-,N/A,,Overcast,0,2013-02-22 02:12:00
8:32 PM,21.2,14.0,74,30.20,10.0,Calm,Calm,-,N/A,,Overcast,0,2013-02-22 02:32:00
8:52 PM,21.2,14.0,74,30.19,10.0,Calm,Calm,-,N/A,,Overcast,0,2013-02-22 02:52:00
9:12 PM,21.2,14.0,74,30.18,10.0,ENE,4.6,-,N/A,,Overcast,60,2013-02-22 03:12:00
9:32 PM,21.2,15.8,80,30.18,10.0,ENE,5.8,-,N/A,,Overcast,70,2013-02-22 03:32:00
9:52 PM,21.2,15.8,80,30.17,10.0,Calm,Calm,-,N/A,,Overcast,0,2013-02-22 03:52:00
10:12 PM,21.2,14.0,74,30.16,10.0,Calm,Calm,-,N/A,,Overcast,0,2013-02-22 04:12:00
10:32 PM,21.2,14.0,74,30.15,10.0,Calm,Calm,-,N/A,,Overcast,0,2013-02-22 04:32:00
10:52 PM,21.2,14.0,74,30.15,10.0,Calm,Calm,-,N/A,,Overcast,0,2013-02-22 04:52:00
11:12 PM,23.0,15.8,74,30.14,10.0,Calm,Calm,-,N/A,,Overcast,0,2013-02-22 05:12:00
11:32 PM,23.0,15.8,74,30.13,10.0,Calm,Calm,-,N/A,,Overcast,0,2013-02-22 05:32:00
11:52 PM,23.0,17.6,80,30.12,10.0,Calm,Calm,-,N/A,,Overcast,0,2013-02-22 05:52:00